Location: G�ndlingen
(48.0142°N, 7.6396°E)
Time: 00:45:11
(UTC+00:00)

Cosmos 1766 Rocket - Pass Details

Date: 05 July 2020
Orbit: 606 x 632 km, 82.5° (Epoch: 11 August)

Event Time Altitude Azimuth Distance (km) Brightness Sun altitude
Exits shadow 22:44:23 40° 152° (SSE) 916 3.9 -18.4°
Maximum altitude 22:45:42 58° 95° (E) 724 3.7 -18.5°
Drops below altitude 10° 22:50:02 10° 17° (NNE) 2,000 7.1 -18.6°
Sets 22:52:19 0° 13° (NNE) 2,916 8.2 -18.7°
